DW6276 Weather Reports


Display with metric or nautical units.
time (UTC)temp
F
wind
direction
speed
MPH
gust
MPH
rain 1hr
in
rain 24hr
in
rain mn
in
humidity
%
barometer
mb
20260903033517 74 135 1.0 2.0 0.00 0.12 0.11 88 1011.0
20260903032517 74 135 1.0 2.0 0.00 0.12 0.11 88 1011.0
20260903031517 74 113 2.0 3.0 0.00 0.12 0.11 88 1011.0
20260903030537 74 113 2.0 3.0 0.00 0.12 0.11 88 1010.9
20260903025517 74 135 1.0 2.0 0.00 0.12 0.11 88 1010.8
20260903024537 75 113 2.0 3.0 0.00 0.12 0.11 88 1011.0
20260903023517 75 135 2.0 3.0 0.00 0.12 0.11 88 1011.0
20260903022517 75 135 1.0 2.0 0.00 0.12 0.11 88 1010.8
20260903021517 75 135 1.0 1.0 0.00 0.12 0.11 88 1010.8
20260903020517 75 135 2.0 3.0 0.00 0.12 0.11 88 1010.7
20260903015517 75 135 1.0 2.0 0.00 0.12 0.11 88 1010.6
20260903014537 76 135 1.0 1.0 0.00 0.12 0.11 87 1010.3
20260903013537 76 0.0 1.0 0.00 0.12 0.11 87 1010.3
20260903012517 77 135 1.0 1.0 0.00 0.12 0.11 87 1010.3
20260903011557 77 135 1.0 1.0 0.00 0.12 0.11 86 1010.3
20260903010537 78 135 1.0 2.0 0.00 0.12 0.11 85 1010.3
20260903005517 79 135 1.0 1.0 0.00 0.12 0.11 84 1010.4
20260903004517 80 135 2.0 2.0 0.00 0.12 0.11 82 1010.3
20260903003517 81 0.0 1.0 0.00 0.12 0.11 80 1010.5
20260903002517 82 135 1.0 2.0 0.00 0.12 0.11 79 1010.1
20260903001517 83 113 1.0 3.0 0.00 0.12 0.11 76 1010.2
20260903000517 84 90 1.0 2.0 0.00 0.12 0.11 74 1010.3
20260902235517 84 90 2.0 5.0 0.00 0.12 0.11 72 1010.5
20260902234516 85 90 3.0 5.0 0.00 0.12 0.11 71 1010.5
20260902233516 85 90 2.0 5.0 0.00 0.12 0.11 70 1010.5
20260902232516 85 90 3.0 5.0 0.00 0.12 0.11 71 1010.5
20260902231516 85 90 4.0 6.0 0.00 0.12 0.11 70 1010.5
20260902230517 86 90 3.0 5.0 0.00 0.12 0.11 68 1010.5
20260902225516 86 68 3.0 5.0 0.00 0.12 0.11 68 1010.6
20260902223521 87 90 1.0 2.0 0.00 0.12 0.11 66 1010.6
20260902222516 87 135 2.0 3.0 0.00 0.12 0.11 66 1010.7
20260902221516 87 113 1.0 2.0 0.00 0.12 0.11 65 1010.7
20260902220537 87 113 1.0 3.0 0.00 0.12 0.11 64 1010.7
20260902215517 86 135 2.0 4.0 0.00 0.12 0.11 65 1010.7
20260902214516 86 113 1.0 3.0 0.00 0.12 0.11 64 1010.7
20260902213516 86 90 2.0 5.0 0.00 0.12 0.11 64 1010.8
20260902212516 87 90 2.0 3.0 0.00 0.12 0.11 64 1011.0
20260902211556 87 113 2.0 4.0 0.00 0.12 0.11 64 1011.1
20260902210536 87 158 1.0 5.0 0.00 0.12 0.11 63 1011.2
20260902205516 86 135 2.0 4.0 0.00 0.12 0.11 64 1011.2
20260902204516 86 180 3.0 5.0 0.00 0.12 0.11 63 1011.4
20260902203516 86 180 2.0 5.0 0.00 0.12 0.11 68 1011.4
20260902202516 85 90 2.0 5.0 0.00 0.12 0.11 69 1011.4
20260902201536 85 90 3.0 7.0 0.00 0.12 0.11 69 1011.5
20260902200516 85 113 2.0 5.0 0.00 0.12 0.11 68 1011.5
20260902195536 84 113 3.0 5.0 0.00 0.12 0.11 68 1011.6
20260902194516 85 45 2.0 7.0 0.00 0.12 0.11 68 1011.8
20260902193516 84 113 2.0 4.0 0.00 0.12 0.11 67 1011.7
20260902192516 83 90 3.0 5.0 0.00 0.12 0.11 69 1011.7
20260902191516 84 68 4.0 6.0 0.00 0.12 0.11 69 1011.9
20260902190516 84 113 2.0 4.0 0.00 0.12 0.11 69 1011.9
20260902185516 84 0 1.0 2.0 0.00 0.12 0.11 70 1011.9
20260902184516 83 45 3.0 6.0 0.00 0.12 0.11 68 1012.0
20260902183516 83 45 1.0 2.0 0.00 0.12 0.11 69 1012.2
20260902182516 82 135 2.0 5.0 0.00 0.12 0.11 70 1012.3
20260902181556 82 113 2.0 6.0 0.00 0.12 0.11 73 1012.5
20260902180516 82 113 2.0 4.0 0.00 0.12 0.11 74 1012.5
20260902175516 81 90 1.0 5.0 0.00 0.12 0.11 71 1012.6
20260902174516 81 158 2.0 5.0 0.00 0.12 0.11 73 1012.6
20260902173516 81 180 1.0 3.0 0.00 0.12 0.11 73 1012.8
20260902172516 80 180 2.0 5.0 0.00 0.12 0.11 72 1012.9
20260902171516 80 135 2.0 4.0 0.00 0.12 0.11 72 1013.0
20260902170536 80 135 2.0 4.0 0.00 0.12 0.11 73 1013.2
20260902165516 79 315 1.0 4.0 0.00 0.12 0.11 74 1013.2
20260902164516 79 270 1.0 2.0 0.00 0.12 0.11 76 1013.4
20260902163536 78 23 1.0 3.0 0.00 0.12 0.11 75 1013.2
20260902162536 78 113 1.0 3.0 0.00 0.12 0.11 76 1013.1
20260902161516 77 248 1.0 2.0 0.00 0.12 0.11 76 1013.0
20260902160516 77 225 1.0 3.0 0.00 0.12 0.11 75 1013.1
20260902155516 77 158 3.0 4.0 0.00 0.12 0.11 76 1013.2
20260902154516 77 135 1.0 2.0 0.00 0.12 0.11 76 1013.2
20260902153536 76 90 1.0 2.0 0.00 0.12 0.11 76 1013.0
20260902152536 76 90 2.0 3.0 0.00 0.12 0.11 77 1012.8
20260902151536 75 158 3.0 7.0 0.00 0.12 0.11 79 1012.7
20260902150516 75 113 4.0 7.0 0.00 0.12 0.11 79 1012.5
20260902145516 74 135 4.0 7.0 0.00 0.12 0.11 80 1012.5
20260902144516 74 90 3.0 6.0 0.00 0.12 0.11 79 1012.6
20260902143536 73 113 3.0 5.0 0.00 0.12 0.11 81 1012.4
20260902142515 72 90 5.0 9.0 0.00 0.12 0.11 81 1012.2
20260902141515 71 90 5.0 8.0 0.00 0.12 0.11 83 1012.3
20260902140515 71 113 3.0 5.0 0.00 0.12 0.11 84 1012.4
20260902135515 70 113 4.0 7.0 0.00 0.12 0.11 85 1012.4
20260902134516 69 135 3.0 8.0 0.00 0.12 0.11 86 1012.6
20260902133516 69 135 3.0 6.0 0.00 0.12 0.11 86 1012.6
20260902132515 68 113 2.0 5.0 0.00 0.12 0.11 87 1012.6
20260902131515 67 113 2.0 4.0 0.00 0.12 0.11 89 1012.5
20260902130515 67 90 3.0 5.0 0.00 0.12 0.11 90 1012.4
20260902125515 67 90 1.0 5.0 0.00 0.12 0.11 90 1012.8
20260902124516 66 113 2.0 3.0 0.00 0.12 0.11 91 1012.8
20260902123515 66 90 1.0 2.0 0.00 0.12 0.11 92 1012.8
20260902122535 65 0 2.0 3.0 0.00 0.12 0.11 92 1012.7
20260902121535 65 0 3.0 4.0 0.00 0.12 0.11 92 1012.3
20260902120515 65 0 1.0 3.0 0.00 0.12 0.11 92 1012.4
20260902115515 66 0 1.0 3.0 0.00 0.12 0.11 92 1012.4
20260902114515 66 0 3.0 4.0 0.00 0.12 0.11 92 1012.2
20260902113515 66 0 1.0 2.0 0.00 0.12 0.11 92 1012.3
20260902112515 66 0 3.0 5.0 0.00 0.12 0.11 92 1012.2
20260902111515 66 0 2.0 4.0 0.00 0.12 0.11 92 1012.3
20260902110517 66 0 3.0 6.0 0.00 0.12 0.11 93 1012.4
20260902105537 67 0 3.0 4.0 0.00 0.12 0.11 93 1012.9
20260902104517 67 0 5.0 9.0 0.00 0.12 0.11 93 1012.7
20260902103517 66 180 3.0 6.0 0.00 0.12 0.11 93 1012.8
20260902102537 66 0.0 1.0 0.00 0.12 0.11 93 1013.8
20260902101517 66 0 1.0 3.0 0.00 0.12 0.11 93 1013.8
20260902100517 66 0 1.0 2.0 0.00 0.12 0.11 93 1013.9
20260902095517 65 0 1.0 1.0 0.00 0.12 0.11 93 1013.8
20260902094517 65 0 1.0 2.0 0.00 0.12 0.11 92 1013.7
20260902093517 65 0.0 2.0 0.00 0.12 0.11 92 1013.5
20260902092517 65 0.0 1.0 0.00 0.12 0.11 92 1013.3
20260902091517 66 0 1.0 2.0 0.00 0.12 0.11 92 1013.4
20260902090537 66 0 1.0 1.0 0.00 0.12 0.11 92 1013.0
20260902085517 66 0 1.0 2.0 0.00 0.12 0.11 92 1012.8
20260902084517 66 0.0 2.0 0.00 0.12 0.11 91 1012.6
20260902083537 66 0.0 1.0 0.00 0.12 0.11 91 1012.8
20260902082517 66 0.0 1.0 0.00 0.12 0.11 91 1012.8
20260902081517 66 0 1.0 5.0 0.01 0.12 0.11 91 1012.7
20260902080517 66 0 5.0 7.0 0.01 0.12 0.11 91 1013.1
20260902075517 67 0 3.0 7.0 0.02 0.12 0.11 90 1012.1
20260902074517 67 0 6.0 10.0 0.03 0.12 0.11 90 1011.5
20260902073517 67 0 5.0 7.0 0.03 0.12 0.11 90 1011.4
20260902072517 67 0 3.0 7.0 0.04 0.12 0.11 90 1011.9
20260902071517 67 0 7.0 10.0 0.04 0.11 0.10 90 1010.9
20260902070517 68 0 7.0 11.0 0.04 0.11 0.10 91 1011.4
20260902065517 68 0 5.0 8.0 0.04 0.10 0.09 91 1011.8
20260902064517 68 0 4.0 7.0 0.07 0.09 0.08 91 1012.7
20260902063557 68 0 5.0 8.0 0.08 0.09 0.08 91 1013.0
20260902062517 68 0 4.0 7.0 0.07 0.08 0.07 90 1013.2
20260902061517 69 0 4.0 7.0 0.06 0.07 0.06 90 1013.5
20260902060517 69 0 4.0 7.0 0.06 0.07 0.06 90 1014.7
20260902055516 70 0 4.0 10.0 0.05 0.06 0.05 89 1016.0
20260902054517 70 0 15.0 30.0 0.01 0.02 0.01 88 1017.1
20260902053516 69 0 5.0 8.0 0.01 0.01 0.00 87 1015.1
20260902052517 70 0 5.0 7.0 0.01 0.01 0.00 85 1013.2
20260902051517 70 0 3.0 6.0 0.01 0.01 0.00 87 1012.9
20260902050517 71 0 7.0 10.0 0.01 0.01 0.00 88 1012.5
20260902045515 70 0 5.0 8.0 0.01 0.01 0.01 90 1012.8
20260902044555 70 0 1.0 3.0 0.01 0.01 0.01 90 1014.1
20260902043515 70 0 4.0 6.0 0.00 0.00 0.00 90 1014.5
20260902042515 70 0 3.0 4.0 0.00 0.00 0.00 88 1014.4
20260902041515 70 0 1.0 3.0 0.00 0.00 0.00 88 1013.2
20260902040515 69 0 1.0 3.0 0.00 0.00 0.00 90 1012.7
20260902035517 69 0.0 2.0 0.00 0.00 0.00 90 1012.9
20260902034517 69 0 1.0 2.0 0.00 0.00 0.00 89 1013.0